Location: Boursonne
(49.2024°N, 3.0468°E)
Time: 06:37:57
(UTC+00:00)

CZ-4B R/B - Pass Details

Date: 03 March 2021
Orbit: 388 x 455 km, 97.6° (Epoch: 11 April)

Event Time Altitude Azimuth Distance (km) Brightness Sun altitude
Rises 18:39:08 0° 5° (N) 2,294 5.0 -11.4°
Reaches altitude 10° 18:41:12 10° 356° (N) 1,435 4.1 -11.7°
Maximum altitude 18:43:59 33° 290° (WNW) 691 3.1 -12.2°
Drops below altitude 10° 18:46:46 10° 224° (SW) 1,437 4.5 -12.6°
Sets 18:48:51 0° 215° (SW) 2,298 5.4 -13.0°
